Wind_Speed
1 0 0 1 2 2 3 3 3 5 6 6 7 8 10 11 12 13 15 16 17 16 15 13 12 11 12 12 12 13 14 13 12 12 11 11 12 12 11 11 11 11 11
3 1 2 2 3 4 4 5 5 6 8 9 9 10 11 13 13 14 14 13 12 15 19 18 17 16 15 15 15 14 14 14 13 15 15 15 14 14 14 14 14 13 13
4 3 3 3 3 4 4 5 6 6 7 8 10 11 12 13 14 14 14 14 13 12 12 15 18 20 20 19 19 19 19 19 19 19 19 19 18 18 18 17 16 17 17
6 4 3 2 3 3 5 6 7 9 10 11 13 14 15 16 15 14 14 14 14 13 13 13 12 11 12 14 15 16 17 19 20 21 21 22 24 23 22 21 21 20 20
6 4 3 2 2 3 4 6 8 9 11 13 13 15 17 17 17 16 16 17 15 14 15 15 15 15 15 15 15 15 15 16 17 18 18 18 18 19 22 25 25 25 24
7 6 5 5 5 5 7 8 10 11 13 14 16 17 18 18 18 18 19 20 20 20 19 18 18 19 19 19 20 20 20 20 21 22 24 23 23 23 23 23 24 25 26
7 7 6 7 8 8 10 11 13 14 15 16 17 18 20 21 22 21 21 22 22 22 23 24 24 25 26 26 26 26 26 26 27 27 28 29 29 28 28 28 28 28 28
9 8 8 9 11 11 13 14 16 17 18 19 20 21 22 24 24 25 25 25 27 27 27 27 28 29 29 28 29 29 30 31 31 32 32 33 33 33 33 33 33 32 33
9 9 10 11 13 14 15 17 18 20 21 21 23 24 25 26 27 28 28 29 29 29 30 30 30 31 31 31 32 33 33 32 34 33 34 35 36 36 36 35 36 36 36
10 11 12 13 15 16 17 18 20 22 23 24 25 26 26 28 28 29 29 29 30 31 31 31 30 30 30 31 32 33 32 33 34 34 34 35 36 37 39 39 39 39 39
11 11 13 14 16 17 18 19 21 22 23 24 26 28 29 30 30 30 30 30 30 30 30 29 29 29 29 30 31 32 33 33 34 34 34 35 35 35 37 38 38 38 39
12 12 14 16 17 19 21 22 23 24 26 27 29 32 32 32 31 30 29 28 29 29 30 31 31 32 32 32 33 33 34 34 35 36 37 38 38 36 36 39 40 40 40
14 15 17 20 21 23 25 25 26 28 30 32 34 34 33 32 30 29 28 28 29 30 31 32 32 32 32 34 35 37 38 38 40 41 42 44 44 45 45 44 45 46 46
18 19 22 24 25 27 27 28 29 30 33 36 37 35 34 31 29 28 28 29 29 30 31 33 35 37 38 39 40 42 44 45 46 47 49 50 51 51 51 51 51 51 52
22 23 25 28 29 31 31 31 32 35 37 37 36 34 31 30 28 28 30 31 34 36 38 39 41 42 44 46 48 49 51 52 54 54 55 55 56 55 55 54 53 53 52
25 26 29 31 33 35 36 37 39 39 38 36 33 32 31 30 31 34 36 38 41 42 44 45 46 47 49 51 53 55 56 56 57 56 55 53 52 52 51 51 50 50 51
27 29 30 32 35 35 36 37 39 38 35 33 32 32 33 34 36 38 41 44 46 47 48 49 49 50 51 51 52 52 54 55 57 57 57 54 51 50 50 50 51 52 51
29 32 33 36 37 34 34 37 36 34 34 34 35 36 38 40 42 44 46 47 48 49 49 49 48 48 50 52 54 55 55 56 58 57 55 52 49 48 47 45 43 45 48
32 34 37 34 31 34 36 35 34 34 35 37 39 41 44 45 47 48 48 49 48 48 48 49 49 49 48 44 38 36 39 42 44 44 43 42 40 36 37 42 46 49 52
35 36 34 32 35 37 35 35 36 38 39 41 43 44 46 47 48 48 47 48 50 50 48 45 38 35 30 33 34 34 31 29 28 29 29 30 33 37 42 47 48 49 52
32 32 33 32 34 35 36 37 39 40 42 45 46 47 47 46 47 49 49 48 43 40 36 33 33 34 35 35 34 34 34 34 33 33 34 37 39 40 40 41 44 48 51
34 36 31 32 34 36 38 40 42 44 45 46 45 44 46 47 45 41 37 34 31 32 33 34 37 36 34 34 33 32 32 31 31 31 32 31 28 28 31 36 41 46 51
36 36 37 37 38 39 41 42 44 44 43 42 44 44 41 38 37 34 32 31 31 32 32 34 33 31 30 29 28 27 26 22 20 19 19 22 25 28 32 34 40 44 34
36 38 39 39 40 42 42 42 42 40 41 41 38 38 40 40 38 35 33 32 32 31 33 28 27 22 22 22 20 13 12 12 13 20 22 24 25 26 31 34 38 27 13
38 39 41 42 42 42 42 41 39 39 36 33 36 40 42 44 43 38 35 32 32 30 30 22 20 20 16 13 14 15 15 14 12 12 19 26 31 30 33 34 35 25 25
41 43 44 45 44 42 41 39 39 34 32 33 36 40 44 49 48 38 33 30 29 28 22 13 10 12 14 15 15 17 18 16 16 16 20 27 32 34 34 32 31 28 25
Wind_Direction
254 131 96 33 32 15 21 44 36 30 23 12 355 337 331 324 323 319 310 295 284 283 284 284 287 289 291 291 289 287 285 285 287 286 283 283 288 294 297 298 300 295 284
263 267 287 322 350 2 3 7 360 350 344 341 336 330 324 318 316 315 319 327 315 289 277 279 281 282 283 285 287 289 290 289 288 287 284 282 283 283 282 284 287 289 290
252 268 289 320 335 338 343 339 338 331 326 322 322 320 317 316 312 314 316 314 311 322 313 288 277 277 280 281 282 281 282 284 285 285 285 284 283 281 278 278 279 281 281
243 261 280 306 324 329 330 328 328 324 319 314 313 312 311 310 310 304 307 311 313 311 310 309 309 304 293 289 287 286 284 282 283 282 281 281 279 277 277 277 275 273 273
236 236 252 276 297 324 335 336 331 330 331 327 322 317 313 311 307 303 299 296 295 298 298 296 295 294 294 292 290 288 288 288 288 289 288 287 288 287 281 276 275 275 272
224 233 249 266 279 295 303 312 313 319 324 324 323 322 317 311 306 302 297 291 289 286 284 283 283 283 282 283 283 283 283 281 281 281 283 283 281 280 279 279 279 277 276
229 241 255 272 285 297 301 306 310 313 313 314 316 318 317 314 310 305 298 293 290 289 288 286 285 283 282 280 278 278 279 279 278 276 277 279 278 278 276 275 274 274 275
236 248 265 279 287 293 299 304 306 306 307 309 310 310 310 308 305 304 300 296 293 291 289 288 287 287 287 285 283 282 282 282 281 280 279 278 278 278 278 277 274 273 272
246 262 273 283 288 293 297 299 301 303 305 305 305 305 303 303 302 301 301 297 293 291 291 289 288 288 288 288 287 286 285 285 284 284 283 282 281 280 279 278 277 276 274
253 266 278 286 291 295 296 299 299 299 300 302 300 299 298 297 297 297 296 294 293 292 291 291 291 291 291 292 290 290 290 288 287 288 286 285 285 285 283 280 279 277 277
263 276 286 293 297 299 301 301 300 299 298 297 296 296 294 295 296 295 294 293 292 291 291 291 290 290 289 288 288 288 288 287 287 286 284 283 281 280 280 281 279 278 277
274 286 293 295 298 301 300 301 298 298 298 296 294 294 295 295 294 292 291 289 289 288 287 286 286 288 289 289 288 287 287 287 286 286 285 283 282 279 277 278 278 277 276
279 286 291 294 297 298 300 301 299 300 298 297 295 295 294 292 289 289 288 286 285 285 286 288 289 288 288 287 287 287 286 285 284 283 282 282 283 282 281 279 277 276 275
279 287 292 296 299 301 300 300 299 297 299 299 297 295 293 289 287 287 288 287 287 287 287 287 287 287 286 285 284 283 282 281 281 280 280 281 280 279 280 280 279 278 277
284 290 294 297 300 301 301 301 298 301 299 296 295 293 288 287 287 285 285 287 287 287 286 285 284 284 284 284 283 282 281 279 278 278 279 279 279 280 279 279 278 278 277
284 291 295 297 300 300 301 298 297 297 296 294 290 287 283 280 282 284 286 287 287 287 287 286 285 285 284 284 283 283 282 281 281 280 279 278 277 276 276 276 276 276 276
285 289 293 300 303 300 296 295 295 294 292 289 286 283 281 281 285 287 288 288 288 289 289 289 288 287 286 285 284 283 282 281 280 279 278 278 277 276 276 275 276 276 275
287 291 297 299 299 297 295 294 291 290 289 288 286 286 286 288 289 289 289 291 291 290 290 289 288 287 286 286 286 284 282 278 276 275 276 276 276 276 276 277 277 276 276
290 295 297 297 293 297 294 290 288 288 289 289 289 290 291 291 292 293 293 292 292 292 292 292 290 288 288 290 294 295 292 286 283 280 279 280 282 283 281 280 279 278 276
293 299 300 296 293 295 289 288 288 290 291 292 293 294 295 295 295 295 295 295 294 294 291 288 289 288 288 292 294 297 301 303 298 291 282 278 283 286 285 286 286 285 282
296 298 299 295 288 287 287 288 291 293 296 297 298 297 296 296 296 297 296 294 292 291 293 293 288 286 290 291 292 292 292 291 291 290 287 286 290 292 290 292 291 289 287
292 294 291 288 288 289 292 294 296 298 298 297 296 297 298 300 300 298 297 295 292 292 291 293 295 296 294 287 288 290 293 293 294 294 293 292 294 299 302 301 299 297 300
290 291 289 290 291 293 295 296 296 295 295 297 299 301 300 299 300 299 295 291 289 297 299 297 300 298 295 289 289 295 299 301 305 307 303 304 312 317 314 317 323 316 312
283 284 288 292 294 294 296 295 293 293 296 299 299 299 299 297 294 290 290 291 290 296 304 300 304 300 296 297 299 303 311 308 305 307 312 317 319 324 323 331 338 324 325
285 287 289 291 293 295 293 291 292 293 295 293 298 301 303 299 292 283 284 288 291 295 305 298 301 305 305 301 300 304 304 304 301 302 304 315 318 320 322 334 345 308 295
282 284 287 289 290 290 289 290 292 293 291 297 303 308 305 300 289 275 275 284 292 298 304 306 304 307 306 303 303 305 305 309 317 316 315 316 316 318 318 325 339 347 325
Height
5882 5882 5882 5882 5881 5881 5881 5881 5881 5881 5881 5880 5880 5879 5878 5878 5877 5876 5875 5874 5874 5874 5873 5873 5872 5872 5871 5871 5870 5870 5869 5869 5868 5867 5866 5866 5865 5865 5864 5863 5862 5861 5861
5882 5882 5882 5882 5881 5881 5881 5881 5881 5881 5881 5881 5880 5879 5878 5878 5877 5875 5874 5873 5872 5871 5871 5871 5871 5871 5870 5869 5869 5868 5867 5866 5866 5865 5865 5864 5863 5862 5862 5861 5861 5860 5860
5882 5882 5882 5882 5882 5882 5882 5881 5881 5881 5881 5880 5880 5879 5878 5877 5876 5875 5874 5872 5871 5870 5869 5868 5868 5868 5867 5867 5866 5866 5865 5864 5863 5863 5862 5862 5861 5860 5859 5859 5858 5857 5857
5881 5881 5882 5882 5881 5882 5882 5881 5880 5880 5879 5879 5879 5878 5877 5876 5874 5873 5872 5871 5870 5869 5868 5867 5866 5865 5865 5864 5863 5862 5861 5861 5860 5860 5859 5858 5857 5857 5856 5855 5854 5854 5854
5880 5880 5881 5881 5881 5881 5881 5881 5880 5879 5878 5878 5877 5876 5875 5874 5873 5872 5871 5870 5868 5867 5866 5865 5864 5864 5863 5862 5861 5860 5859 5858 5857 5856 5855 5856 5854 5853 5852 5851 5851 5850 5849
5880 5880 5880 5881 5880 5880 5881 5880 5879 5878 5877 5877 5875 5874 5873 5872 5871 5869 5868 5867 5866 5865 5864 5863 5862 5861 5860 5859 5858 5857 5856 5856 5855 5853 5851 5851 5851 5850 5849 5848 5847 5846 5845
5879 5879 5879 5880 5880 5879 5879 5879 5878 5877 5876 5875 5874 5872 5871 5870 5868 5867 5865 5864 5863 5862 5860 5859 5859 5858 5857 5856 5854 5853 5852 5851 5850 5850 5848 5846 5846 5845 5844 5844 5843 5841 5841
5878 5878 5879 5879 5879 5878 5877 5877 5876 5875 5873 5873 5871 5870 5869 5867 5865 5863 5862 5861 5859 5858 5857 5855 5854 5853 5852 5851 5849 5848 5847 5846 5845 5844 5843 5842 5840 5839 5838 5837 5837 5836 5835
5877 5877 5877 5877 5877 5876 5876 5874 5873 5872 5871 5869 5868 5866 5865 5863 5861 5859 5858 5856 5855 5853 5852 5850 5849 5848 5846 5845 5844 5842 5841 5840 5838 5838 5837 5835 5834 5833 5832 5831 5830 5830 5829
5875 5876 5876 5875 5875 5874 5873 5872 5871 5870 5868 5866 5864 5862 5860 5859 5857 5855 5853 5851 5849 5848 5846 5845 5844 5842 5841 5840 5838 5836 5835 5834 5832 5831 5830 5829 5828 5826 5825 5824 5823 5822 5821
5874 5874 5874 5873 5873 5872 5871 5869 5868 5866 5864 5862 5860 5857 5855 5853 5851 5849 5848 5846 5844 5843 5841 5839 5838 5836 5835 5834 5832 5830 5829 5827 5826 5825 5823 5822 5821 5820 5818 5816 5815 5814 5813
5871 5871 5870 5870 5870 5869 5867 5866 5864 5862 5860 5857 5855 5852 5850 5847 5845 5844 5842 5840 5839 5837 5835 5833 5832 5831 5829 5828 5826 5824 5822 5821 5819 5818 5816 5814 5813 5813 5812 5810 5807 5806 5805
5868 5868 5867 5866 5866 5865 5863 5861 5859 5857 5855 5852 5849 5847 5844 5842 5840 5839 5837 5835 5833 5831 5830 5828 5826 5825 5823 5821 5819 5817 5815 5813 5812 5810 5808 5806 5805 5804 5803 5802 5800 5798 5797
5864 5864 5863 5862 5861 5860 5859 5857 5854 5852 5849 5846 5843 5841 5838 5836 5835 5833 5831 5829 5828 5826 5824 5822 5820 5818 5816 5814 5812 5810 5807 5804 5802 5800 5798 5796 5795 5794 5792 5791 5790 5788 5786
5861 5860 5859 5858 5856 5855 5853 5851 5848 5846 5843 5839 5837 5834 5833 5831 5829 5827 5825 5824 5821 5819 5817 5815 5813 5810 5808 5805 5802 5800 5797 5794 5792 5790 5788 5786 5784 5782 5781 5779 5777 5776 5775
5857 5855 5854 5853 5851 5848 5847 5844 5841 5838 5835 5832 5830 5828 5826 5825 5823 5821 5819 5817 5814 5811 5808 5806 5804 5801 5798 5795 5791 5788 5785 5782 5780 5777 5776 5774 5772 5771 5769 5767 5766 5764 5763
5852 5850 5848 5847 5844 5842 5839 5837 5834 5830 5827 5825 5823 5821 5820 5818 5817 5815 5812 5808 5805 5802 5799 5796 5792 5790 5786 5783 5780 5776 5772 5769 5767 5764 5763 5762 5761 5759 5758 5757 5755 5754 5752
5846 5844 5842 5840 5838 5836 5833 5830 5827 5824 5821 5819 5817 5815 5813 5811 5808 5805 5802 5799 5795 5792 5788 5785 5781 5778 5775 5771 5768 5764 5760 5756 5753 5751 5750 5749 5749 5748 5746 5745 5745 5744 5742
5840 5839 5836 5833 5831 5830 5827 5824 5821 5819 5817 5814 5811 5809 5806 5803 5800 5796 5792 5788 5785 5781 5777 5774 5769 5766 5762 5759 5756 5752 5748 5744 5741 5739 5739 5738 5739 5739 5739 5738 5736 5733 5730
5833 5831 5828 5827 5825 5822 5820 5818 5815 5813 5811 5807 5804 5801 5797 5793 5790 5786 5782 5778 5774 5770 5766 5762 5758 5756 5754 5752 5749 5746 5742 5739 5735 5733 5732 5731 5731 5731 5729 5728 5725 5721 5717
5825 5824 5823 5821 5819 5816 5814 5811 5808 5805 5803 5800 5796 5792 5788 5784 5781 5777 5772 5768 5764 5760 5757 5754 5751 5749 5747 5745 5742 5739 5737 5734 5731 5729 5727 5726 5725 5723 5720 5718 5714 5709 5703
5818 5817 5816 5814 5812 5810 5807 5805 5802 5798 5794 5791 5787 5783 5779 5775 5771 5767 5763 5759 5757 5754 5751 5747 5744 5741 5739 5737 5735 5733 5731 5728 5725 5722 5720 5719 5718 5717 5713 5708 5703 5697 5689
5811 5810 5807 5806 5804 5802 5800 5796 5793 5789 5785 5782 5778 5774 5770 5767 5763 5760 5756 5753 5750 5747 5744 5740 5737 5734 5731 5730 5729 5727 5724 5721 5719 5716 5715 5714 5712 5710 5705 5701 5694 5684 5677
5806 5804 5802 5799 5797 5794 5792 5788 5785 5781 5777 5773 5769 5766 5762 5758 5755 5752 5749 5746 5743 5740 5737 5733 5731 5728 5726 5724 5724 5722 5721 5719 5717 5713 5710 5708 5707 5704 5699 5693 5685 5678 5672
5799 5797 5795 5792 5789 5786 5783 5780 5777 5773 5769 5765 5762 5758 5753 5748 5744 5742 5741 5739 5737 5734 5731 5727 5725 5723 5722 5721 5720 5718 5717 5715 5715 5713 5708 5703 5700 5698 5692 5687 5680 5672 5665
5791 5789 5786 5783 5780 5777 5774 5772 5769 5766 5762 5759 5756 5750 5745 5737 5730 5731 5732 5732 5730 5728 5725 5722 5721 5721 5719 5718 5717 5714 5712 5711 5709 5708 5706 5701 5696 5691 5685 5681 5676 5669 5661